Regional Weather Roundup
Issued by NWS

Home | Current Version | Previous Version | Graphics & Text | Print | Product List | Glossary On
Versions: 1 2 3 4 5 6 7 8 9 10 11 12 13 14 15 16 17 18 19 20 21 22 23 24 25 26 27 28 29 30 31 32 33 34 35 36 37 38 39 40 41 42 43 44 45 46 47 48 49 50
000
ASUS45 KSLC 280310
RWRUT

UTAH REGIONAL WEATHER ROUNDUP
NATIONAL WEATHER SERVICE SALT LAKE CITY UT
900 PM MDT THU AUG 27 2015

UTZ001>011-023>025-280400-

NORTHERN UTAH

CITY           SKY/WX    TMP DP  RH WIND       PRES   REMARKS
BRIGHAM CITY   MOCLDY    80  46  29 CALM      30.16R
HILL AFB       CLEAR     75  49  40 E6        30.19R
LOGAN          CLEAR     72  52  49 CALM      30.17R
OGDEN          PTCLDY    78  49  35 E3        30.16R
PROVO AIRPORT  PTCLDY    72  52  49 E3        30.18R
SALT LAKE CITY PTCLDY    79  46  31 N7        30.14R
VERNAL         PTCLDY    71  43  36 N12       30.22R
WENDOVER       PTCLDY    81  39  22 NE7       30.14R
HEBER CITY     CLEAR     70  37  30 NE8       30.26R
WEST JORDAN    CLEAR     73  41  31 CALM      30.18R

$$

UTZ012>022-026-027-280400-

SOUTHERN/CENTRAL UTAH

CITY           SKY/WX    TMP DP  RH WIND       PRES   REMARKS
BLANDING       PTCLDY    69  44  40 N8        30.29S
BRYCE CANYON   MOCLDY    63  52  67 CALM      30.40R
CEDAR CITY     PTCLDY    69  49  48 S5        30.24R
DELTA          PTCLDY    77  42  28 NE6       30.17S
HANKSVILLE     MOCLDY    81  46  30 NW8G18    30.15R
MILFORD        PTCLDY    73  45  36 W8        30.17S
MOAB/CYNLANDS  CLEAR     78  48  34 CALM      30.11R
PRICE          PTCLDY    74  42  31 NW9       30.24R
ST GEORGE      CLEAR     90  46  22 NW3       30.02R
KANAB          PTCLDY    72  64  78 CALM      30.24R

$$

REGIONAL REPORTS     COLORADO/ARIZONA

CITY           SKY/WX    TMP DP  RH WIND       PRES   REMARKS
CRAIG, CO      MOCLDY    65  48  54 E6        30.27R
GRAND JUNCTION PTCLDY    71  58  63 VRB5      30.15R
RIFLE          PTCLDY    64  59  83 CALM      30.23R
MONTROSE       PTCLDY    69  55  60 S8        30.25R
CORTEZ         CLEAR     67  56  67 CALM      30.22R
PAGE, AZ       PTCLDY    82  52  35 CALM      30.12R
GRAND CANYON   MOCLDY    64  45  49 CALM      30.33R
KINGMAN        PTCLDY    82  53  36 CALM      30.06S
FLAGSTAFF      CLOUDY    58  57  97 CALM      30.37R

$$

REGIONAL REPORTS    NEVADA/IDAHO/WYOMING

CITY           SKY/WX    TMP DP  RH WIND       PRES   REMARKS
LAS VEGAS, NV  PTCLDY    97  50  20 CALM      29.91R HX  94
ELY            CLEAR     67  42  40 SE8       30.29R
ELKO           CLEAR     78  32  18 NW7       30.16S
POCATELLO, ID  CLEAR     73  42  32 S10       30.13S
BURLEY         CLEAR     72  45  37 S7        30.11R
EVANSTON, WY   PTCLDY    64  37  36 NE3       30.36R
ROCK SPRINGS   MOCLDY    60  46  59 SW5       30.33R
KEMMERER       PTCLDY    59  37  44 NW7       30.37R

$$



USA.gov is the U.S. government's official web portal to all federal, state and local government web resources and services.